Regional Weather Roundup
Issued by NWS

Home | Current Version | Previous Version | Text Only | Print | Product List | Glossary Off
Versions: 1 2 3 4 5 6 7 8 9 10 11 12 13 14 15 16 17 18 19 20 21 22 23 24 25 26 27 28 29 30 31 32 33 34 35 36 37 38 39 40 41 42 43 44 45 46 47 48 49 50

000
ASUS43 KIND 251709
RWRIN

WEATHER ROUNDUP FOR INDIANA
NATIONAL WEATHER SERVICE INDIANAPOLIS IN
100 PM EDT SAT OCT 25 2014

NOTE: "FAIR" INDICATES FEW OR NO CLOUDS BELOW 12,000 FEET WITH NO
SIGNIFICANT WEATHER AND/OR OBSTRUCTIONS TO VISIBILITY.

* - STATION DOES NOT REPORT WEATHER SUCH AS PRECIPITATION OR FOG.

+ - STATION NOT QUALITY CONTROLLED BY THE NATIONAL WEATHER SERVICE.
    USE DATA WITH CAUTION...ESPECIALLY DEWPOINT AND RELATIVE
    HUMIDITY OBSERVATIONS.

INZ001>003-010>013-019-020-251800-
NORTHWEST INDIANA

CITY           SKY/WX    TMP DP  RH WIND       PRES   REMARKS
GARY /AIRPORT/ SUNNY     70  48  46 W14       29.96R
KNOX *+        MOSUNNY   64  53  68 W10G17    29.95R
LA PORTE +     SUNNY     66  51  57 NW9G17    29.95R
MICHIGAN CITY+ SUNNY     63  48  59 NW9G18    29.95R
MONTICELLO +   SUNNY     62  55  78 NW8       29.96S
RENSSELAER +   SUNNY     64  57  77 W9        29.97R
VALPARAISO     SUNNY     69  46  43 NW12G18   29.95S

$$

LMZ046-743>745-251800-
SOUTHERN LAKE MICHIGAN

STATION/POSITION TIME  TEMP WIND        PRES
                       AIR  DIR/SP/G
                 (UTC) (F)  (DEG/KT/KT) (MB)
MICHIGAN CITY    1700   58  220/ 10/ 11   N/A

$$

INZ004-005-014>016-021>024-251800-
NORTH CENTRAL INDIANA

CITY           SKY/WX    TMP DP  RH WIND       PRES   REMARKS
ELKHART        MOSUNNY   64  50  59 W12       29.92S
GOSHEN         CLOUDY    61  54  77 W15       29.92S HAZE
LOGANSPORT +   SUNNY     66  50  55 W8        29.95S
PERU/GRISSOM   SUNNY     67  60  80 W15       29.93F
ROCHESTER +    SUNNY     64  54  68 W12       29.95R
SOUTH BEND     NOT AVBL
WARSAW +       SUNNY     63  54  72 W14       29.93R HAZE

$$

INZ006>009-017-018-025>027-251800-
NORTHEAST INDIANA

CITY           SKY/WX    TMP DP  RH WIND       PRES   REMARKS
ANGOLA *+      CLOUDY    63  54  72 W13       29.89S
AUBURN +       SUNNY     66  52  59 NW12      29.90R
FORT WAYNE     MOSUNNY   68  54  60 W15       29.91S
HUNTINGTON +   SUNNY    N/A N/A N/A W9G20     29.91S

$$

INZ028-029-035-036-043>045-051>053-251800-
WEST CENTRAL INDIANA

CITY           SKY/WX    TMP DP  RH WIND       PRES   REMARKS
GREENCASTLE +  SUNNY     68  55  64 W6        29.99S
LAFAYETTE      SUNNY     63  55  75 W12       29.96F
TERRE HAUTE    SUNNY     70  57  63 NW7       29.99F

$$

INZ030>032-037>040-046>048-054>057-064-065-251800-
CENTRAL INDIANA

CITY           SKY/WX    TMP DP  RH WIND       PRES   REMARKS
ANDERSON       SUNNY     68  54  60 W14       29.95F
CP ATTERBURY + SUNNY     68  57  68 W6        29.98S
COLUMBUS       SUNNY     66  57  72 SW9       29.98F
FRANKFORT +    SUNNY     70  57  63 SW12      29.97F
INDIANAPOLIS   MOSUNNY   68  56  65 W9        29.96F
-EAGLE CREEK   SUNNY     69  56  62 W7        29.96F
KOKOMO *+      SUNNY     68  55  64 W15       29.95R
MARION +       SUNNY     68  53  58 W15       29.94S
MT COMFORT *+  SUNNY     68  50  52 W12       29.97S
SHELBYVILLE    SUNNY     70  56  61 W10       29.96S
ZIONSVILLE +   SUNNY     70  54  56 W7        29.97S

$$

INZ033-034-041-042-049-050-058-059-251800-
EAST CENTRAL INDIANA

CITY           SKY/WX    TMP DP  RH WIND       PRES   REMARKS
MUNCIE         SUNNY     69  55  60 W10       29.93F

$$

INZ060-061-067>069-081>083-085>088-251800-
SOUTHWEST INDIANA

CITY           SKY/WX    TMP DP  RH WIND       PRES   REMARKS
EVANSVILLE     SUNNY     72  59  63 W5        30.02F
HUNTINGBURG *+ SUNNY     70  59  68 W6        30.01F
WASHINGTON +   SUNNY     70  60  69 W6        30.00R

$$

INZ062-063-066-070>080-084-089>092-251800-
SOUTH CENTRAL AND SOUTHEAST INDIANA

CITY           SKY/WX    TMP DP  RH WIND       PRES   REMARKS
BEDFORD +      SUNNY     68  57  68 SW6       30.00F
BLOOMINGTON    SUNNY     68  57  68 VRB6      29.99F
SEYMOUR +      MOSUNNY   72  57  60 W7        29.98

$$




USA.gov is the U.S. government's official web portal to all federal, state and local government web resources and services.